Location: Del Amo
(33.8464°N, 118.2104°W)
Time: 17:36:38
(UTC+00:00)

XW-2C - Visible Passes

Search period start: 07 October 2024 00:00
Search period end: 17 October 2024 00:00
Orbit: 399 x 405 km, 97.5° (Epoch: 07 October)

Date Brightness Start Highest point End Pass type
(mag) Time Alt. Az. Time Alt. Az. Time Alt. Az.
07 Oct ? 02:45:49 10° S 02:48:51 49° W 02:51:54 10° NNW visible
08 Oct ? 01:56:54 10° SE 01:59:25 23° ENE 02:01:57 10° NNE visible
08 Oct ? 03:30:15 10° WSW 03:31:10 11° W 03:32:06 10° WNW visible
09 Oct ? 02:38:11 10° S 02:41:16 69° WSW 02:44:23 10° NNW visible
10 Oct ? 01:49:22 10° ESE 01:51:31 17° ENE 01:53:39 10° NNE visible
10 Oct ? 03:21:20 10° SW 03:23:08 15° W 03:24:58 10° WNW visible
11 Oct ? 02:29:50 10° SSE 02:32:55 82° ENE 02:36:01 10° N visible
12 Oct ? 03:11:59 10° SW 03:14:20 20° W 03:16:41 10° NW visible
13 Oct ? 02:20:46 10° SSE 02:23:46 54° ENE 02:26:48 10° N visible
14 Oct ? 03:02:02 10° SSW 03:04:43 28° W 03:07:26 10° NW visible
15 Oct ? 02:11:01 10° SE 02:13:51 35° ENE 02:16:42 10° N visible
16 Oct ? 02:51:25 10° S 02:54:20 42° W 02:57:17 10° NNW visible
